Find Shikongxing 01

NORAD ID: 65712 Int'l Des: 2025-214 Owner: PKU Country: CN operational
LEOCIRCULAR

当前视图

正在加载3D地球...

About Shikongxing 01

Shikongxing 01 (NORAD 65712) is a satellite launched Sep 24, 2025 by PKU of CN. It operates in LEO, CIRCULAR orbit with a mass of 40.00 kg.

即将过境

Passes for default location (London). Set your location on the main map for personalized predictions.

高度历史

Loading altitude history...

两行轨道根数

1 65712U 25214A 26195.10266902 .00000695 00000-0 89889-4 0 9990
2 65712 49.9856 167.4332 0013483 353.5391 6.5376 14.92928235 43726
Epoch: Jul 14, 2026 • Age: 9 hours

当前状态

高度 593.1 km
远地点 / 近地点 N/A
速度 7.57 km/s
星下点 -35.68°S, 18.14°E
发射日期 Sep 24, 2025
运行时间 0.8 years
类型 other

技术详情

分类 Payload
质量 40.00 kg
干质量 40.00 kg
总质量 40.00 kg
长度 0.50 m
直径 0.50 m
跨度 0.50 m
形状 Box
制造商 SDK
平台类型 GPS50
阶段状态 In Orbit
所有者/国家 PKU/CN

Most Searched